Weather History for PAQT - January, 2013

Change the Weather History Date:

Saturday, January 19, 2013

  Actual Average (PAKU) Record (PAKU)
Temperature  
Mean Temperature -26 °F -  
Max Temperature -18 °F -8 °F 7 °F (1987)
Min Temperature -32 °F -17 °F -50 °F (1993)
Degree Days  
Heating Degree Days 91    
Moisture  
Dew Point -30 °F    
Average Humidity 81    
Maximum Humidity 91    
Minimum Humidity 73    
Precipitation  
Precipitation 0.00 in - - ()
Sea Level Pressure  
Sea Level Pressure 30.90 in    
Wind  
Wind Speed 4 mph (NNE)    
Max Wind Speed 22 mph    
Max Gust Speed -    
Visibility 6 miles    
Events      
Averages and records for this station are not official NWS values.
T = Trace of Precipitation, MM = Missing Value Source: NWS Daily Summary

Daily Weather History Graph

Daily Weather History Graph

Search for Another Location

Airport or City:

Trip Planner

Search our weather history database for the weather conditions in past years. The results will help you decide how hot, cold, wet, or windy it might be!

Date:

Astronomy

Jan. 19, 2013 Rise Set
Actual Time 12:22 PM AKST 2:07 PM AKST
Civil Twilight 10:10 AM AKST 4:20 PM AKST
Nautical Twilight 8:41 AM AKST 5:49 PM AKST
Astronomical Twilight 7:26 AM AKST 7:04 PM AKST
Moon 10:06 AM AKST (1/19) 4:31 AM AKST (1/19)
Length of Visible Light 6h 10m
Length of Day
1h 45m
First Quarter, 58% of the Moon is Illuminated
Jan 19
First Quarter
Jan 26
Full
Feb 3
Last Quarter
Feb 9
New
Feb 17
First Quarter

Hourly Weather History & Observations

Time (AKST) Temp. Windchill Dew Point Humidity Pressure Visibility Wind Dir Wind Speed Gust Speed Precip Events Conditions
12:53 AM -24.0 °F - -29.0 °F 77% 31.01 in 10.0 mi Calm Calm - N/A   Clear
1:53 AM -26.0 °F -37.5 °F -29.0 °F 85% 31.01 in 10.0 mi NNE 3.5 mph - N/A   Clear
2:49 AM -27.4 °F - -29.2 °F 91% 31.01 in 10.0 mi Calm Calm - N/A   Partly Cloudy
3:53 AM -27.9 °F - -33.0 °F 77% 31.02 in 10.0 mi Calm Calm - N/A   Mostly Cloudy
4:42 AM -29.2 °F - -32.8 °F 83% 31.00 in 10.0 mi Calm Calm - N/A   Overcast
4:53 AM -29.0 °F - -32.1 °F 85% 31.01 in 10.0 mi Calm Calm - N/A   Overcast
5:53 AM -32.1 °F - - N/A% 31.01 in 10.0 mi Calm Calm - N/A   Overcast
6:37 AM -29.2 °F - -32.8 °F 83% 30.99 in 10.0 mi Calm Calm - N/A   Scattered Clouds
6:53 AM -27.9 °F - -34.1 °F 73% 31.00 in 10.0 mi Calm Calm - N/A   Clear
7:53 AM -29.9 °F -47.1 °F - N/A% 30.99 in 10.0 mi North 5.8 mph - N/A   Clear
8:53 AM -29.0 °F -47.9 °F -33.0 °F 81% 30.98 in 10.0 mi NNE 6.9 mph - N/A   Clear
9:44 AM -29.2 °F -44.0 °F - N/A% 30.97 in 3.0 mi NE 4.6 mph - N/A   Partly Cloudy
9:53 AM -29.0 °F - -32.1 °F 85% 30.97 in 4.0 mi Calm Calm - N/A   Partly Cloudy
10:53 AM -29.9 °F - - N/A% 30.97 in 10.0 mi Calm Calm - N/A   Clear
11:11 AM -29.2 °F -41.2 °F - N/A% 30.96 in 8.0 mi NE 3.5 mph - N/A   Partly Cloudy
11:53 AM -32.1 °F - - N/A% 30.96 in 8.0 mi Calm Calm - N/A   Clear
12:53 PM -29.9 °F -47.1 °F - N/A% 30.95 in 9.0 mi North 5.8 mph - N/A   Clear
1:53 PM -29.9 °F -47.1 °F - N/A% 30.92 in 6.0 mi North 5.8 mph - N/A   Haze
2:53 PM -29.9 °F -42.0 °F - N/A% 30.91 in 3.0 mi NNE 3.5 mph - N/A   Clear
3:53 PM -31.0 °F -46.1 °F - N/A% 30.88 in 9.0 mi NNE 4.6 mph - N/A   Clear
4:53 PM -29.9 °F -49.0 °F - N/A% 30.86 in 8.0 mi NNE 6.9 mph - N/A   Clear
5:53 PM -32.1 °F -54.7 °F - N/A% 30.83 in 9.0 mi NNE 9.2 mph - N/A   Clear
6:50 PM -27.4 °F -47.6 °F -32.8 °F 75% 30.82 in 3.0 mi NNE 8.1 mph - N/A   Scattered Clouds
6:53 PM -27.9 °F -46.6 °F -32.1 °F 81% 30.83 in 2.5 mi NNE 6.9 mph - N/A   Mostly Cloudy
7:04 PM -27.4 °F -39.2 °F -32.8 °F 75% 30.82 in 1.5 mi ENE 3.5 mph - N/A   Mostly Cloudy
7:33 PM -25.6 °F -46.8 °F -29.2 °F 83% 30.81 in 2.5 mi NNE 9.2 mph - N/A   Mostly Cloudy
7:35 PM -25.6 °F -48.0 °F -29.2 °F 83% 30.81 in 3.0 mi NNE 10.4 mph - N/A   Scattered Clouds
7:53 PM -27.0 °F -48.5 °F -31.0 °F 81% 30.80 in 4.0 mi NNE 9.2 mph - N/A   Clear
8:45 PM -23.8 °F -49.8 °F -27.4 °F 83% 30.78 in 2.5 mi NE 15.0 mph - N/A   Partly Cloudy
8:53 PM -23.1 °F -49.8 °F -27.9 °F 78% 30.79 in 1.8 mi NE 16.1 mph - N/A   Haze
9:53 PM -23.1 °F -51.3 °F -27.0 °F 82% 30.76 in 1.2 mi NE 18.4 mph - N/A   Mostly Cloudy
10:13 PM -20.2 °F -49.5 °F -25.6 °F 76% 30.74 in 0.8 mi NE 21.9 mph - N/A   Haze
10:53 PM -20.0 °F -49.3 °F -24.0 °F 82% 30.74 in 0.8 mi NE 21.9 mph - N/A   Mist
11:07 PM -20.2 °F -48.2 °F -23.8 °F 83% 30.74 in 1.0 mi NE 19.6 mph - N/A   Mist
11:53 PM -18.9 °F -45.2 °F -23.1 °F 81% 30.74 in 1.2 mi NE 17.3 mph - N/A   Overcast